Miscellaneous Local Product
Issued by NWS North Platte, NE

Home | Current Version | Previous Version | Graphics & Text | Print | Product List | Glossary On
Versions: 1 2 3 4 5 6 7 8 9 10 11 12 13 14 15 16 17 18 19 20 21 22 23 24 25 26 27 28 29 30 31 32 33 34 35 36 37 38 39 40 41 42 43 44 45 46 47 48 49 50
665
AXUS43 KLBF 052110
MISLBF


WESTERN AND NORTH CENTRAL NEBRASKA HOURLY WEATHER ROUNDUP
NATIONAL WEATHER SERVICE NORTH PLATTE NE
300 PM CST MON DEC 05 2016

NOTE: "FAIR" INDICATES FEW OR NO CLOUDS BELOW 12,000 FEET WITH NO
SIGNIFICANT WEATHER AND/OR OBSTRUCTIONS TO VISIBILITY.

NOTE: STATIONS NOT REPORTING VARIABLES SUCH AS SKY/WEATHER OR
PRESSURE ARE PROVIDED BY RAWS AND APRS NETWORKS AND ARE NOT UNDER
NATIONAL WEATHER SERVICE QUALITY CONTROL.

...OBSERVATIONS IN AND NEAR THE EASTERN PANHANDLE OF NEBRASKA...

CITY           SKY/WX    TMP DP  RH WIND       PRES   REMARKS
PINE RIDGE     LGT SNOW  24  20  84 N8        29.74R FOG     WCI  15
CHADRON        LGT SNOW  27  20  75 N21G35    29.76R WCI  13
ALLIANCE       PTSUNNY   31  18  58 NW23G36   29.69R WCI  18
CRESCENT LAKE    N/A     36  24  60 NW20G28     N/A  WCI  25
$$

...OBSERVATIONS IN NORTHERN NEBRASKA AND FAR SOUTHERN SOUTH DAKOTA...

CITY           SKY/WX    TMP DP  RH WIND       PRES   REMARKS
WINNER         CLOUDY    32  24  72 NW32G45   29.63R WCI  17
VALENTINE      CLOUDY    30  24  78 NW25G35   29.66R WCI  16
THEDFORD       PTSUNNY   41  31  67 NW22G29   29.64R
AINSWORTH      CLOUDY    37  29  74 NW21G35   29.63R WCI  26
O`NEILL        SUNNY     45  30  56 NW20      29.58R
ORD            MOSUNNY   49  27  42 CALM      29.56R
BROKEN BOW     MOSUNNY   55  28  35 N24       29.56R
VALENTINE NWR    N/A     38  27  64 NW17G26     N/A  WCI  28
BUTTE            N/A     36  31  82 NW20G29     N/A  WCI  25
HALSEY           N/A     47  28  48 NW12G21     N/A
CHAMBERS         N/A     47  27  46 MISG        N/A
EWING            N/A     47  33  58 W7          N/A
$$

...OBSERVATIONS IN SOUTHWEST NEBRASKA AND FAR NORTHEAST COLORADO...

CITY           SKY/WX    TMP DP  RH WIND       PRES   REMARKS
WRAY           CLOUDY    52  21  30 N21G29    29.61
HOLYOKE        MOCLDY    46   3  17 NW32G41   29.65R
IMPERIAL       MOSUNNY   50   9  19 NW33G41   29.63R
OGALLALA       CLOUDY    50  16  25 NW30G38   29.61S
NORTH PLATTE   SUNNY     54  17  23 NW30G41   29.60R
MCCOOK         CLOUDY    48  24  39 NW6       29.62R
LEXINGTON      PTSUNNY   52  27  38 CALM      29.57S
STAPLETON        N/A     50  29  44 W3G15       N/A
GOTHENBURG       N/A     56  21  25 W12         N/A
CALLAWAY         N/A     55  26  32 NW31        N/A
$$

...OBSERVATIONS IN CENTRAL LINCOLN COUNTY AREA...

CITY           SKY/WX    TMP DP  RH WIND       PRES   REMARKS
N.P. AIRPORT   SUNNY     54  17  23 NW30G41   29.60R
N.P. DOWNTOWN    N/A     51  23  33 W14G26      N/A
N.P. SOUTHEAST   N/A     52  22  31 NW14G30     N/A
N.P. HILLCREST   N/A     51  23  33 NW28G40     N/A
$$

...SOME OBSERVATIONS FROM AROUND THE REGION...

CITY           SKY/WX    TMP DP  RH WIND       PRES   REMARKS
LARAMIE        CLOUDY    20  -8  28 W26G40    29.71S WCI   2
CHEYENNE       PTSUNNY   27  -7  22 NW24G38   29.72R WCI  12
DENVER         SUNNY     53   9  17 W23G31    29.59S
AKRON          SUNNY     44   9  23 N29G36    29.65R
SCOTTSBLUFF    CLOUDY    32  15  49 NW28G36   29.76R WCI  18
RAPID CITY     FLURRIES  23  14  68 N35G48    29.71R WCI   4
BISMARCK       SNOW      25  23  92 NW22G32   29.61R VSB 1/2 WCI  10
PIERRE         LGT SNOW  29  24  82 NW33G44   29.62R WCI  13
SIOUX FALLS    CLOUDY    44  34  67 S17G24    29.51R
OMAHA          PTSUNNY   52  36  54 S22G35    29.63F
GRAND ISLAND   CLOUDY    47  34  60 S18       29.58R
KANSAS CITY    MOSUNNY   51  32  48 S18G24    29.73F
WICHITA        SUNNY     54  37  52 S23       29.65F
OKLAHOMA CITY  MOSUNNY   51  41  68 S13       29.70F
DALLAS         RAIN      51  46  83 S3        29.76R
AMARILLO       SUNNY     66  24  20 SW17G24   29.56F
DODGE CITY     SUNNY     58  27  30 S21G28    29.54F
HAYS           SUNNY     55  32  41 S10       29.59F
GOODLAND       MOSUNNY   59  21  23 NE14      29.57R
$$




USA.gov is the U.S. government's official web portal to all federal, state and local government web resources and services.